Simultaneous Nadir Overpasses (SNOs) Predictions

Prediction of SNOs between NOAA-21 and LANDSAT-8 Satellite Orbit:

Table of predicted SNOs for the next 14.0 days since TLE Epoch: 7/6/2024
Index Date (NOAA-21) Time (NOAA-21) Lat,Lon (NOAA-21) SZA (NOAA-21 ) Date (LANDSAT-8) Time (LANDSAT-8) Lat,Lon (LANDSAT-8) SZA (LANDSAT-8 ) Distance(km) Time Diff (sec)
1 07/07/2024 14:02:57 -70.50, 144.84 131.98 07/07/2024 14:04:08 -70.36, 145.65 132.16 33.87 71
2 07/07/2024 14:53:35 70.06, -47.16 47.57 07/07/2024 14:53:39 70.04, -47.17 47.54 2.53 4
3 07/07/2024 15:44:16 -69.93, 120.37 132.58 07/07/2024 15:43:09 -69.93, 120.31 132.56 2.28 67
4 07/10/2024 06:19:47 -70.11, -98.78 132.06 07/10/2024 06:20:43 -70.13, -98.81 132.05 1.98 56
5 07/10/2024 07:10:32 70.05, 68.63 47.88 07/10/2024 07:10:10 70.03, 68.69 47.86 3.30 22
6 07/10/2024 08:01:00 -69.22,-122.83 132.99 07/10/2024 07:59:52 -69.25,-124.73 132.87 74.88 68
7 07/12/2024 22:36:43 -70.10, 17.01 131.70 07/12/2024 22:37:13 -70.08, 17.01 131.72 1.87 30
8 07/12/2024 23:27:27 69.99,-175.51 48.19 07/12/2024 23:26:40 69.98,-175.49 48.19 1.06 47
9 07/15/2024 14:03:00 70.30, -34.85 48.93 07/15/2024 14:04:12 70.23, -34.54 48.83 14.53 72
10 07/15/2024 14:53:39 -70.04, 132.87 131.34 07/15/2024 14:53:43 -70.06, 132.86 131.32 2.18 4
11 07/15/2024 15:44:23 69.94, -59.66 48.56 07/15/2024 15:43:10 69.96, -59.64 48.58 2.26 73
12 07/18/2024 06:19:53 70.10, 81.23 49.18 07/18/2024 06:20:43 70.12, 81.19 49.18 2.32 50
13 07/18/2024 07:10:35 -70.00,-111.29 130.93 07/18/2024 07:10:13 -70.01,-111.32 130.91 2.20 22



Historial Predications of SNOs between NOAA-21 and LANDSAT-8
